Regional Weather Roundup
Issued by NWS

Home | Current Version | Previous Version | Graphics & Text | Print | Product List | Glossary On
Versions: 1 2 3 4 5 6 7 8 9 10 11 12 13 14 15 16 17 18 19 20 21 22 23 24 25 26 27 28 29 30 31 32 33 34 35 36 37 38 39 40 41 42 43 44 45 46 47 48 49 50
410
ASUS45 KSLC 181310
RWRUT

UTAH REGIONAL WEATHER ROUNDUP
NATIONAL WEATHER SERVICE SALT LAKE CITY UT
600 AM MST SAT NOV 18 2017

UTZ001>011-023>025-181400-

NORTHERN UTAH

CITY           SKY/WX    TMP DP  RH WIND       PRES   REMARKS
BRIGHAM CITY   CLEAR     28  21  76 CALM      30.43S
HILL AFB       CLEAR     25  18  73 E13       30.41R WCI  14
LOGAN          CLOUDY    26  22  84 W3        30.42R
OGDEN          CLEAR     26  19  74 S8        30.41R WCI  18
SALT LAKE CITY PTCLDY    31  22  69 SE8       30.43R WCI  23
TOOELE VALLEY  PTCLDY    27  21  80 S6        30.44R WCI  20
WENDOVER       PTCLDY    26  18  71 N3        30.43R
HEBER CITY       N/A     19  12  73 E3        30.40R
WEST JORDAN    CLEAR     26  22  83 SW7       30.43R WCI  18

$$

UTZ011>015-024>027-181400-

CENTRAL/NORTHEAST UTAH

CITY           SKY/WX    TMP DP  RH WIND       PRES   REMARKS
PROVO AIRPORT  PTCLDY    24  20  84 SE5       30.44S WCI  18
MOAB/CANYONLAN CLEAR     26  12  55 CALM      30.37R
DELTA          MOCLDY    19  18  93 CALM      30.43S
PRICE          PTCLDY    25  14  63 NW8       30.36R WCI  16
RICHFIELD      CLEAR     16  16 100 CALM      30.46R
ROOSEVELT      CLOUDY    21  12  68 CALM      30.39R
VERNAL         CLOUDY    15   8  73 W3        30.38R

$$

UTZ013>016-019>022-027-181400-

SOUTHERN UTAH

CITY           SKY/WX    TMP DP  RH WIND       PRES   REMARKS
BRYCE CANYON   PTCLDY     8   4  83 W8        30.35R WCI  -4
CEDAR CITY     PTCLDY    18  15  88 CALM      30.37R
MILFORD        PTCLDY    16  13  88 NE3       30.40R
ST GEORGE      MOSUNNY   39  14  36 CALM      30.37R
HANKSVILLE     PTCLDY    21  10  63 CALM      30.41S
KANAB          CLEAR     30  10  43 N9G16     30.40R WCI  22
BLANDING         N/A     18   8  66 N6        30.40R WCI   9

$$

REGIONAL REPORTS     COLORADO/ARIZONA

CITY           SKY/WX    TMP DP  RH WIND       PRES   REMARKS
CRAIG, CO      CLOUDY     9   5  84 CALM      30.36R
GRAND JUNCTION CLEAR     20  14  77 E3        30.39R
RIFLE, CO      CLOUDY    18  14  84 SE6       30.40R WCI  10
MONTROSE, CO   CLEAR     23  17  78 SE7       30.40R WCI  15
CORTEZ, CO     CLOUDY    26  12  55 NW10      30.29R WCI  16
COLORADO CITY    N/A     34  12  40 NE12      30.36R WCI  25
PAGE, AZ       PTCLDY    35  14  42 SW3       30.36R
GRAND CANYON   PTCLDY    29  12  49 NE8       30.31R WCI  21
KINGMAN, AZ    CLEAR     38  20  48 E12       30.26R WCI  30
FLAGSTAFF, AZ  PTCLDY    28  17  63 E13       30.30R WCI  17

$$

REGIONAL REPORTS    NEVADA/IDAHO/WYOMING

CITY           SKY/WX    TMP DP  RH WIND       PRES   REMARKS
LAS VEGAS, NV  CLEAR     49  16  26 N13       30.31R
ELY, NY        PTCLDY     6   3  87 S9        30.37S WCI  -8
ELKO, NV       PTCLDY    20  15  81 NE3       30.39S
POCATELLO, ID  CLEAR     26  20  77 SW9       30.39R WCI  17
BURLEY, ID     CLEAR     27  19  72 SW12      30.38R WCI  17
FORT BRIDGER,    N/A     14  12  92 W16       30.34R WCI  -2
EVANSTON, WY   CLOUDY    10   8  92 SW12      30.34R WCI  -5
ROCK SPRINGS,  CLOUDY    16  11  80 SW21      30.28R WCI  -1

$$




USA.gov is the U.S. government's official web portal to all federal, state and local government web resources and services.